Location: Tuolumne
(37.9608°N, 120.2374°W)
Time: 14:17:29
(UTC+00:00)

COSMOS 2428 - Pass Details

Date: 03 August 2024
Orbit: 842 x 857 km, 70.9° (Epoch: 08 September)

Event Time Altitude Azimuth Distance (km) Brightness Sun altitude
Exits shadow 12:05:37 15° 238° (WSW) 2,118 4.1 -11.4°
Maximum altitude 12:09:47 37° 299° (WNW) 1,291 3.4 -10.7°
Drops below altitude 10° 12:15:02 10° 6° (N) 2,479 5.7 -9.8°
Sets 12:17:41 0° 15° (NNE) 3,421 6.6 -9.4°
